sat.trackr.live / text

‹ back to catalog

SHARJAH-SAT-2

NORAD 68444 · 2026-067AE

PAYLOAD ACTIVE UNKNOWN

§ Identity

Operator
Country
UAE
Launch date
2026-03-30
Launch site
AFWTR
Launch vehicle
Mass (kg)
RCS (m²)

External: N2YO · Heavens-Above · Gunter

§ Orbital elements

Epoch: 2026-05-24T20:41:41.319456Z

Period
94.83 min
Inclination
97.4559°
Eccentricity
0.0003614
Mean motion
15.18571762 rev/d
Perigee alt
507.7 km
Apogee alt
512.6 km
Semi-major
6,888.3 km
B*
2.7539e-4
RAAN
103.7164°
Arg perigee
81.5091°
Mean anomaly
278.6552°
Rev number
840

§ Raw data

SHARJAH-SAT-21 68444U 26067AE  26144.86228379  .00005625  00000+0  27539-3 0  99952 68444  97.4559 103.7164 0003614  81.5091 278.6552 15.18571762  8407

JSON: /api/v1/satellites/68444 · /tle

For live sub-satellite position, see the globe view (requires WebGL).

§ Visibility from observer

Set your observer location to see the next 7 days of passes ≥ 10°. The values pass through the URL so the page stays shareable.

No JS? Fill the form by hand. The geolocation button needs JavaScript.